,,,PA_Meas_PMT16A,,PR_Meas_QMR101_102,,RH_Meas_QMH101,,SR_Meas_QMS101,,TA_Meas_QMH101,,GenWind,,GenWind,
date,time,status,PA,status,PR,status,RH,status,SR,status,TA,status,DirAvg,status,SpdAvg,
2011-04-25, 00:00:04,VALID,1004.41,VALID,0,INVALID,163.807,VALID,0,VALID,23.0984,VALID,32,VALID,0.145703,
2011-04-25, 00:01:04,VALID,1004.4,VALID,0,INVALID,163.792,VALID,0,VALID,23.1391,VALID,32,VALID,0.352734,
2011-04-25, 00:02:04,VALID,1004.36,VALID,0,INVALID,163.83,VALID,0,VALID,23.1374,VALID,32,VALID,0.208984,
2011-04-25, 00:03:04,VALID,1004.36,VALID,0.5,INVALID,163.815,VALID,0,VALID,23.1374,VALID,32,VALID,0.392188,
2011-04-25, 00:04:04,VALID,1004.34,VALID,0,INVALID,163.8,VALID,0.100563,VALID,23.1179,VALID,32,VALID,0.238672,
2011-04-25, 00:05:04,VALID,1004.34,VALID,0,INVALID,163.807,VALID,0,VALID,23.0984,VALID,32,VALID,0.165234,
2011-04-25, 00:06:04,VALID,1004.29,VALID,0,INVALID,163.823,VALID,0,VALID,23.0984,VALID,32,VALID,0.132422,
2011-04-25, 00:07:04,VALID,1004.27,VALID,0,INVALID,163.8,VALID,0,VALID,23.1002,VALID,32,VALID,0.182812,
2011-04-25, 00:08:04,VALID,1004.27,VALID,0,INVALID,163.807,VALID,0,VALID,23.0595,VALID,32,VALID,0.301953,
2011-04-25, 00:09:04,VALID,1004.26,VALID,0,INVALID,163.815,VALID,0.100563,VALID,23.0401,VALID,32,VALID,0.155859,
2011-04-25, 00:10:04,VALID,1004.23,VALID,0,INVALID,163.807,VALID,0,VALID,23.0807,VALID,32,VALID,0.276172,
2011-04-25, 00:11:04,VALID,1004.21,VALID,0,INVALID,163.807,VALID,0,VALID,23.0613,VALID,32,VALID,0.321875,
2011-04-25, 00:12:04,VALID,1004.21,VALID,0,INVALID,163.815,VALID,0,VALID,23.0206,VALID,32,VALID,0.4,
2011-04-25, 00:13:04,VALID,1004.22,VALID,0,INVALID,163.8,VALID,0,VALID,23.0401,VALID,32,VALID,0.0195313,
2011-04-25, 00:14:04,VALID,1004.19,VALID,0,INVALID,163.83,VALID,0.100563,VALID,23.079,VALID,32,VALID,0.178906,
2011-04-25, 00:15:04,VALID,1004.22,VALID,0,INVALID,163.838,VALID,0,VALID,23.1197,VALID,32,VALID,0.175391,
2011-04-25, 00:16:04,VALID,1004.17,VALID,0,INVALID,163.807,VALID,0,VALID,23.1197,VALID,32,VALID,0.197266,
2011-04-25, 00:17:04,VALID,1004.15,VALID,0,INVALID,163.777,VALID,0,VALID,23.1179,VALID,32,VALID,0.148047,
2011-04-25, 00:18:04,VALID,1004.15,VALID,0,INVALID,163.823,VALID,0,VALID,23.1586,VALID,32,VALID,0.260547,
2011-04-25, 00:19:04,VALID,1004.15,VALID,0,INVALID,163.777,VALID,0,VALID,23.1374,VALID,32,VALID,0.296094,
2011-04-25, 00:20:04,VALID,1004.13,VALID,0,INVALID,163.823,VALID,0,VALID,23.1179,VALID,32,VALID,0.439844,
2011-04-25, 00:21:04,VALID,1004.13,VALID,0,INVALID,163.815,VALID,0,VALID,23.079,VALID,32,VALID,0.590234,
2011-04-25, 00:22:04,VALID,1004.12,VALID,0,INVALID,163.8,VALID,0,VALID,23.0807,VALID,32,VALID,0.491406,
2011-04-25, 00:23:04,VALID,1004.1,VALID,0,INVALID,163.838,VALID,0,VALID,23.0807,VALID,32,VALID,0.367578,
2011-04-25, 00:24:04,VALID,1004.11,VALID,0,INVALID,163.8,VALID,0,VALID,23.1002,VALID,32,VALID,0.509375,
2011-04-25, 00:25:04,VALID,1004.09,VALID,0,INVALID,163.838,VALID,0,VALID,23.0383,VALID,32,VALID,0.323828,
2011-04-25, 00:26:04,VALID,1004.08,VALID,0,INVALID,163.815,VALID,0,VALID,23.0595,VALID,32,VALID,0.207422,
2011-04-25, 00:27:04,VALID,1004.06,VALID,0,INVALID,163.8,VALID,0,VALID,23.079,VALID,32,VALID,0.269922,
2011-04-25, 00:28:04,VALID,1004.05,VALID,0,INVALID,163.815,VALID,0,VALID,23.0984,VALID,32,VALID,0.363672,
2011-04-25, 00:29:04,VALID,1004.05,VALID,0,INVALID,163.807,VALID,0,VALID,23.1197,VALID,32,VALID,0.317969,
2011-04-25, 00:30:04,VALID,1004.06,VALID,0,INVALID,163.83,VALID,0,VALID,23.0807,VALID,32,VALID,0.192969,
2011-04-25, 00:31:04,VALID,1004.04,VALID,0,INVALID,163.8,VALID,0.100563,VALID,23.0383,VALID,32,VALID,0.31875,
2011-04-25, 00:32:04,VALID,1004.02,VALID,0,INVALID,163.807,VALID,0,VALID,23.0807,VALID,32,VALID,0.238672,
2011-04-25, 00:33:04,VALID,1004.01,VALID,0,INVALID,163.807,VALID,0,VALID,23.1197,VALID,32,VALID,0.234766,
2011-04-25, 00:34:04,VALID,1004.04,VALID,0,INVALID,163.807,VALID,0,VALID,23.0984,VALID,32,VALID,0.404297,
2011-04-25, 00:35:04,VALID,1004.03,VALID,0,INVALID,163.792,VALID,0,VALID,23.0595,VALID,32,VALID,0.364844,
2011-04-25, 00:36:04,VALID,1004.02,VALID,0,INVALID,163.807,VALID,0,VALID,23.0595,VALID,32,VALID,0.384375,
2011-04-25, 00:37:04,VALID,1003.99,VALID,0,INVALID,163.807,VALID,0,VALID,23.0807,VALID,32,VALID,0.358984,
2011-04-25, 00:38:04,VALID,1003.98,VALID,0,INVALID,163.8,VALID,0,VALID,23.0984,VALID,32,VALID,0.293359,
2011-04-25, 00:39:04,VALID,1003.97,VALID,0,INVALID,163.823,VALID,0,VALID,23.1197,VALID,32,VALID,0.04375,
2011-04-25, 00:40:04,VALID,1003.95,VALID,0,INVALID,163.823,VALID,0.100563,VALID,23.1374,VALID,32,VALID,0,
2011-04-25, 00:41:04,VALID,1003.94,VALID,0,INVALID,163.807,VALID,0,VALID,23.1179,VALID,32,VALID,0,
2011-04-25, 00:42:04,VALID,1003.95,VALID,0,INVALID,163.815,VALID,0,VALID,23.1374,VALID,32,VALID,0,
2011-04-25, 00:43:04,VALID,1003.94,VALID,0,INVALID,163.823,VALID,0,VALID,23.1568,VALID,32,VALID,0,
2011-04-25, 00:44:04,VALID,1003.93,VALID,0,INVALID,163.792,VALID,0,VALID,23.1162,VALID,32,VALID,0,
2011-04-25, 00:45:04,VALID,1003.97,VALID,0,INVALID,163.807,VALID,0,VALID,23.1586,VALID,32,VALID,0.271484,
2011-04-25, 00:46:04,VALID,1003.96,VALID,0,INVALID,163.815,VALID,0,VALID,23.1586,VALID,32,VALID,0.405469,
2011-04-25, 00:47:04,VALID,1003.98,VALID,0,INVALID,163.815,VALID,0,VALID,23.1197,VALID,32,VALID,0.539844,
2011-04-25, 00:48:04,VALID,1003.99,VALID,0,INVALID,163.823,VALID,0,VALID,23.079,VALID,32,VALID,0.391016,
2011-04-25, 00:49:04,VALID,1003.98,VALID,0,INVALID,163.8,VALID,0,VALID,23.079,VALID,32,VALID,0.370313,
2011-04-25, 00:50:04,VALID,1003.97,VALID,0,INVALID,163.792,VALID,0,VALID,23.0595,VALID,32,VALID,0.289844,
2011-04-25, 00:51:04,VALID,1003.96,VALID,0,INVALID,163.823,VALID,0,VALID,23.0418,VALID,32,VALID,0.543359,
2011-04-25, 00:52:04,VALID,1003.95,VALID,0,INVALID,163.823,VALID,0,VALID,23.0224,VALID,32,VALID,0.440625,
2011-04-25, 00:53:04,VALID,1003.93,VALID,0,INVALID,163.823,VALID,0,VALID,23.0224,VALID,32,VALID,0.378906,
2011-04-25, 00:54:04,VALID,1003.93,VALID,0,INVALID,163.8,VALID,0,VALID,23.0012,VALID,32,VALID,0.295703,
2011-04-25, 00:55:04,VALID,1003.89,VALID,0,INVALID,163.838,VALID,0,VALID,23.0012,VALID,32,VALID,0.307422,
2011-04-25, 00:56:04,VALID,1003.84,VALID,0,INVALID,163.823,VALID,0,VALID,23.0206,VALID,32,VALID,0.453906,
2011-04-25, 00:57:04,VALID,1003.82,VALID,0,INVALID,163.815,VALID,0,VALID,23.0029,VALID,30,VALID,0.526953,
2011-04-25, 00:58:04,VALID,1003.82,VALID,0,INVALID,163.815,VALID,0,VALID,23.0206,VALID,30,VALID,0.356641,
2011-04-25, 00:59:04,VALID,1003.81,VALID,0,INVALID,163.845,VALID,0,VALID,23.0012,VALID,30,VALID,0.379687,
2011-04-25, 01:00:04,VALID,1003.79,VALID,0,INVALID,163.815,VALID,0,VALID,22.9817,VALID,30,VALID,0.631641,
2011-04-25, 01:01:04,VALID,1003.81,VALID,0,INVALID,163.807,VALID,0,VALID,23.0012,VALID,30,VALID,0.400781,
2011-04-25, 01:02:04,VALID,1003.81,VALID,0,INVALID,163.815,VALID,0,VALID,22.9994,VALID,29,VALID,0.346094,
2011-04-25, 01:03:04,VALID,1003.78,VALID,0,INVALID,163.853,VALID,0,VALID,23.0012,VALID,29,VALID,0.366406,
2011-04-25, 01:04:04,VALID,1003.8,VALID,0,INVALID,163.807,VALID,0,VALID,22.9817,VALID,29,VALID,0.309766,
2011-04-25, 01:05:04,VALID,1003.79,VALID,0,INVALID,163.853,VALID,0,VALID,22.9994,VALID,29,VALID,0.303125,
2011-04-25, 01:06:04,VALID,1003.76,VALID,0,INVALID,163.807,VALID,0,VALID,22.9994,VALID,29,VALID,0.401953,
2011-04-25, 01:07:04,VALID,1003.74,VALID,0,INVALID,163.83,VALID,0,VALID,23.0401,VALID,29,VALID,0.297656,
2011-04-25, 01:08:04,VALID,1003.73,VALID,0,INVALID,163.815,VALID,0,VALID,23.0206,VALID,29,VALID,0.170703,
2011-04-25, 01:09:04,VALID,1003.73,VALID,0,INVALID,163.815,VALID,0,VALID,23.0206,VALID,29,VALID,0.351172,
2011-04-25, 01:10:04,VALID,1003.69,VALID,0,INVALID,163.815,VALID,0,VALID,23.0401,VALID,29,VALID,0.363281,
2011-04-25, 01:11:04,VALID,1003.67,VALID,0,INVALID,163.815,VALID,0,VALID,23.0595,VALID,29,VALID,0.467969,
2011-04-25, 01:12:04,VALID,1003.65,VALID,0,INVALID,163.823,VALID,0,VALID,23.0401,VALID,29,VALID,0.504297,
2011-04-25, 01:13:04,VALID,1003.64,VALID,0,INVALID,163.823,VALID,0,VALID,23.0613,VALID,29,VALID,0.291016,
2011-04-25, 01:14:04,VALID,1003.63,VALID,0,INVALID,163.853,VALID,0,VALID,23.0807,VALID,29,VALID,0.326562,
2011-04-25, 01:15:04,VALID,1003.6,VALID,0,INVALID,163.815,VALID,0,VALID,23.0807,VALID,29,VALID,0.390234,
2011-04-25, 01:16:04,VALID,1003.58,VALID,0,INVALID,163.8,VALID,0,VALID,23.1002,VALID,29,VALID,0.289844,
2011-04-25, 01:17:04,VALID,1003.56,VALID,0,INVALID,163.807,VALID,0,VALID,23.1197,VALID,29,VALID,0.343359,
2011-04-25, 01:18:04,VALID,1003.54,VALID,0,INVALID,163.792,VALID,0,VALID,23.1179,VALID,29,VALID,0.00195313,
2011-04-25, 01:19:04,VALID,1003.54,VALID,0,INVALID,163.8,VALID,0,VALID,23.1586,VALID,29,VALID,0.464063,
2011-04-25, 01:20:04,VALID,1003.55,VALID,0,INVALID,163.792,VALID,0,VALID,23.1586,VALID,29,VALID,0.340625,
2011-04-25, 01:21:04,VALID,1003.53,VALID,0,INVALID,163.8,VALID,0,VALID,23.1586,VALID,29,VALID,0.429297,
2011-04-25, 01:22:04,VALID,1003.53,VALID,0,INVALID,163.792,VALID,0,VALID,23.1374,VALID,29,VALID,0.346875,
2011-04-25, 01:23:04,VALID,1003.51,VALID,0,INVALID,163.792,VALID,0,VALID,23.1763,VALID,18,VALID,0.691016,
2011-04-25, 01:24:04,VALID,1003.5,VALID,0,INVALID,163.784,VALID,0,VALID,23.217,VALID,18,VALID,0.438672,
2011-04-25, 01:25:04,VALID,1003.49,VALID,0,INVALID,163.815,VALID,0,VALID,23.2559,VALID,18,VALID,0.481641,
2011-04-25, 01:26:04,VALID,1003.48,VALID,0,INVALID,163.8,VALID,0,VALID,23.2541,VALID,18,VALID,0.594922,
2011-04-25, 01:27:04,VALID,1003.47,VALID,0,INVALID,163.807,VALID,0,VALID,23.2736,VALID,18,VALID,0.374219,
2011-04-25, 01:28:04,VALID,1003.47,VALID,0,INVALID,163.815,VALID,0,VALID,23.3143,VALID,18,VALID,0.377734,
2011-04-25, 01:29:04,VALID,1003.46,VALID,0,INVALID,163.792,VALID,0,VALID,23.3337,VALID,18,VALID,0.480859,
2011-04-25, 01:30:04,VALID,1003.46,VALID,0,INVALID,163.8,VALID,0,VALID,23.3125,VALID,17,VALID,0.464453,
2011-04-25, 01:31:04,VALID,1003.46,VALID,0,INVALID,163.792,VALID,0,VALID,23.3337,VALID,17,VALID,0.491406,
2011-04-25, 01:32:04,VALID,1003.46,VALID,0,INVALID,163.792,VALID,0,VALID,23.3532,VALID,17,VALID,0.475,
2011-04-25, 01:33:04,VALID,1003.48,VALID,0,INVALID,163.8,VALID,0,VALID,23.3514,VALID,17,VALID,0.434375,
2011-04-25, 01:34:04,VALID,1003.47,VALID,0,INVALID,163.784,VALID,0,VALID,23.3727,VALID,17,VALID,0.472656,
2011-04-25, 01:35:04,VALID,1003.46,VALID,0,INVALID,163.792,VALID,0,VALID,23.3709,VALID,17,VALID,0.500391,
2011-04-25, 01:36:04,VALID,1003.46,VALID,0,INVALID,163.784,VALID,0,VALID,23.3302,VALID,17,VALID,0.546484,
2011-04-25, 01:37:05,VALID,1003.45,VALID,0,INVALID,163.777,VALID,0,VALID,23.3921,VALID,17,VALID,0.507422,
2011-04-25, 01:38:05,VALID,1003.43,VALID,0,INVALID,163.823,VALID,0,VALID,23.3921,VALID,17,VALID,0.576563,
2011-04-25, 01:39:05,VALID,1003.4,VALID,0,INVALID,163.792,VALID,0,VALID,23.4328,VALID,17,VALID,0.305469,
2011-04-25, 01:40:05,VALID,1003.4,VALID,0,INVALID,163.83,VALID,0,VALID,23.4116,VALID,17,VALID,0.456641,
2011-04-25, 01:41:05,VALID,1003.37,VALID,0,INVALID,163.777,VALID,0,VALID,23.3904,VALID,17,VALID,0.407031,
2011-04-25, 01:42:05,VALID,1003.37,VALID,0,INVALID,163.823,VALID,0,VALID,23.4116,VALID,17,VALID,0.519531,
2011-04-25, 01:43:05,VALID,1003.35,VALID,0,INVALID,163.777,VALID,0,VALID,23.4311,VALID,17,VALID,0.633984,
2011-04-25, 01:44:05,VALID,1003.31,VALID,0,INVALID,163.8,VALID,0,VALID,23.4116,VALID,17,VALID,0.524609,
2011-04-25, 01:45:05,VALID,1003.31,VALID,0,INVALID,163.807,VALID,0,VALID,23.4311,VALID,17,VALID,0.498437,
2011-04-25, 01:46:05,VALID,1003.31,VALID,0,INVALID,163.784,VALID,0,VALID,23.4293,VALID,17,VALID,0.358984,
2011-04-25, 01:47:05,VALID,1003.31,VALID,0,INVALID,163.784,VALID,0,VALID,23.4311,VALID,17,VALID,0.273047,
2011-04-25, 01:48:05,VALID,1003.35,VALID,0,INVALID,163.769,VALID,0,VALID,23.4311,VALID,17,VALID,0.411719,
2011-04-25, 01:49:05,VALID,1003.35,VALID,0,INVALID,163.784,VALID,0,VALID,23.4098,VALID,17,VALID,0.459766,
2011-04-25, 01:50:05,VALID,1003.32,VALID,0,INVALID,163.8,VALID,0,VALID,23.47,VALID,17,VALID,0.5375,
2011-04-25, 01:51:05,VALID,1003.33,VALID,0,INVALID,163.777,VALID,0,VALID,23.5284,VALID,17,VALID,0.364062,
2011-04-25, 01:52:05,VALID,1003.35,VALID,0,INVALID,163.777,VALID,0,VALID,23.5089,VALID,17,VALID,0.366797,
2011-04-25, 01:53:05,VALID,1003.32,VALID,0,INVALID,163.762,VALID,0,VALID,23.4894,VALID,17,VALID,0.301562,
2011-04-25, 01:54:05,VALID,1003.34,VALID,0,INVALID,163.784,VALID,0,VALID,23.47,VALID,17,VALID,0.251563,
2011-04-25, 01:55:05,VALID,1003.35,VALID,0,INVALID,163.784,VALID,0,VALID,23.4098,VALID,17,VALID,0.349609,
2011-04-25, 01:56:05,VALID,1003.33,VALID,0,INVALID,163.784,VALID,0,VALID,23.4116,VALID,17,VALID,0.348047,
2011-04-25, 01:57:05,VALID,1003.34,VALID,0,INVALID,163.777,VALID,0,VALID,23.4311,VALID,17,VALID,0.445313,
2011-04-25, 01:58:05,VALID,1003.32,VALID,0,INVALID,163.792,VALID,0,VALID,23.4311,VALID,17,VALID,0.345703,
2011-04-25, 01:59:05,VALID,1003.34,VALID,0,INVALID,163.784,VALID,0.100563,VALID,23.4293,VALID,17,VALID,0.28125,
2011-04-25, 02:00:05,VALID,1003.33,VALID,0,INVALID,163.769,VALID,0.100563,VALID,23.408,VALID,17,VALID,0.298438,
2011-04-25, 02:01:05,VALID,1003.31,VALID,0,INVALID,163.792,VALID,0.100563,VALID,23.408,VALID,17,VALID,0.415234,
2011-04-25, 02:02:05,VALID,1003.31,VALID,0,INVALID,163.762,VALID,0.100563,VALID,23.4098,VALID,17,VALID,0.483594,
2011-04-25, 02:03:05,VALID,1003.29,VALID,0,INVALID,163.784,VALID,0.100563,VALID,23.4293,VALID,17,VALID,0.418359,
2011-04-25, 02:04:05,VALID,1003.3,VALID,0,INVALID,163.784,VALID,0.100563,VALID,23.4275,VALID,17,VALID,0.538672,
2011-04-25, 02:05:05,VALID,1003.28,VALID,0,INVALID,163.777,VALID,0.100563,VALID,23.447,VALID,17,VALID,0.580078,
2011-04-25, 02:06:05,VALID,1003.26,VALID,0,INVALID,163.769,VALID,0.100563,VALID,23.4682,VALID,17,VALID,0.393359,
2011-04-25, 02:07:05,VALID,1003.27,VALID,0,INVALID,163.777,VALID,0.100563,VALID,23.447,VALID,17,VALID,0.457031,
2011-04-25, 02:08:05,VALID,1003.27,VALID,0,INVALID,163.784,VALID,0.100563,VALID,23.4682,VALID,17,VALID,0.307031,
2011-04-25, 02:09:05,VALID,1003.24,VALID,0,INVALID,163.754,VALID,0.100563,VALID,23.447,VALID,17,VALID,0.320313,
2011-04-25, 02:10:05,VALID,1003.22,VALID,0,INVALID,163.762,VALID,0.100563,VALID,23.4487,VALID,17,VALID,0.0410156,
2011-04-25, 02:11:05,VALID,1003.21,VALID,0,INVALID,163.777,VALID,0.100563,VALID,23.447,VALID,17,VALID,0.0835937,
2011-04-25, 02:12:05,VALID,1003.16,VALID,0,INVALID,163.777,VALID,0.100563,VALID,23.4859,VALID,17,VALID,0,
2011-04-25, 02:13:05,VALID,1003.17,VALID,0,INVALID,163.777,VALID,0,VALID,23.5266,VALID,17,VALID,0.0167969,
2011-04-25, 02:14:05,VALID,1003.17,VALID,0,INVALID,163.769,VALID,0,VALID,23.5284,VALID,17,VALID,0.295703,
2011-04-25, 02:15:05,VALID,1003.15,VALID,0,INVALID,163.792,VALID,0,VALID,23.5673,VALID,18,VALID,0.326562,
2011-04-25, 02:16:05,VALID,1003.17,VALID,0,INVALID,163.769,VALID,0,VALID,23.5655,VALID,18,VALID,0.131641,
2011-04-25, 02:17:05,VALID,1003.15,VALID,0,INVALID,163.739,VALID,0,VALID,23.6062,VALID,18,VALID,0.223438,
2011-04-25, 02:18:05,VALID,1003.15,VALID,0,INVALID,163.762,VALID,0,VALID,23.6062,VALID,18,VALID,0.203516,
2011-04-25, 02:19:05,VALID,1003.16,VALID,0,INVALID,163.777,VALID,0,VALID,23.6062,VALID,18,VALID,0.514844,
2011-04-25, 02:20:05,VALID,1003.17,VALID,0,INVALID,163.777,VALID,0,VALID,23.6239,VALID,18,VALID,0.325,
2011-04-25, 02:21:05,VALID,1003.15,VALID,0,INVALID,163.762,VALID,0,VALID,23.6026,VALID,18,VALID,0.317578,
2011-04-25, 02:22:05,VALID,1003.16,VALID,0,INVALID,163.784,VALID,0,VALID,23.6646,VALID,18,VALID,0,
2011-04-25, 02:23:05,VALID,1003.14,VALID,0,INVALID,163.762,VALID,0,VALID,23.6841,VALID,70,VALID,0.325391,
2011-04-25, 02:24:05,VALID,1003.14,VALID,0,INVALID,163.739,VALID,0,VALID,23.6434,VALID,70,VALID,0.176172,
2011-04-25, 02:25:05,VALID,1003.14,VALID,0,INVALID,163.784,VALID,0,VALID,23.6628,VALID,70,VALID,0.278906,
2011-04-25, 02:26:05,VALID,1003.13,VALID,0,INVALID,163.777,VALID,0,VALID,23.6841,VALID,70,VALID,0.344531,
2011-04-25, 02:27:05,VALID,1003.12,VALID,0,INVALID,163.777,VALID,0,VALID,23.6841,VALID,70,VALID,0.128906,
2011-04-25, 02:28:05,VALID,1003.12,VALID,0,INVALID,163.769,VALID,0,VALID,23.6841,VALID,70,VALID,0.172656,
2011-04-25, 02:29:05,VALID,1003.13,VALID,0,INVALID,163.762,VALID,0.100563,VALID,23.661,VALID,70,VALID,0.144922,
2011-04-25, 02:30:05,VALID,1003.1,VALID,0,INVALID,163.762,VALID,0.100563,VALID,23.7601,VALID,74,VALID,0.347656,
2011-04-25, 02:31:05,VALID,1003.09,VALID,0,INVALID,163.769,VALID,0.100563,VALID,23.8185,VALID,81,VALID,0.679688,
2011-04-25, 02:32:05,VALID,1003.1,VALID,0,INVALID,163.777,VALID,0,VALID,23.8575,VALID,105,VALID,0.591406,
2011-04-25, 02:33:05,VALID,1003.12,VALID,0,INVALID,163.777,VALID,0,VALID,23.8769,VALID,105,VALID,0.211328,
2011-04-25, 02:34:05,VALID,1003.11,VALID,0,INVALID,163.746,VALID,0.100563,VALID,23.8751,VALID,104,VALID,0.25,
2011-04-25, 02:35:05,VALID,1003.09,VALID,0,INVALID,163.723,VALID,0.100563,VALID,23.8751,VALID,51,VALID,0.498828,
2011-04-25, 02:36:05,VALID,1003.1,VALID,0,INVALID,163.746,VALID,0.100563,VALID,23.914,VALID,29,VALID,0.333594,
2011-04-25, 02:37:05,VALID,1003.09,VALID,0,INVALID,163.731,VALID,0.100563,VALID,23.9548,VALID,30,VALID,0.180078,
2011-04-25, 02:38:05,VALID,1003.11,VALID,0,INVALID,163.731,VALID,0.100563,VALID,23.9724,VALID,78,VALID,0.530078,
2011-04-25, 02:39:05,VALID,1003.09,VALID,0,INVALID,163.739,VALID,0.100563,VALID,24.0326,VALID,40,VALID,0.507813,
2011-04-25, 02:40:05,VALID,1003.1,VALID,0,INVALID,163.731,VALID,0,VALID,24.0716,VALID,60,VALID,0.399219,
2011-04-25, 02:41:05,VALID,1003.12,VALID,0,INVALID,163.754,VALID,0,VALID,24.0503,VALID,59,VALID,0.446875,
2011-04-25, 02:42:05,VALID,1003.1,VALID,0,INVALID,163.746,VALID,0.100563,VALID,24.1105,VALID,59,VALID,0.228516,
2011-04-25, 02:43:05,VALID,1003.09,VALID,0,INVALID,163.723,VALID,0.100563,VALID,24.1105,VALID,59,VALID,0.392578,
2011-04-25, 02:44:05,VALID,1003.05,VALID,0,INVALID,163.716,VALID,0,VALID,24.1123,VALID,60,VALID,0.0210938,
2011-04-25, 02:45:05,VALID,1003.09,VALID,0,INVALID,163.716,VALID,0,VALID,24.1123,VALID,61,VALID,0.199609,
2011-04-25, 02:46:05,VALID,1003.08,VALID,0,INVALID,163.746,VALID,0,VALID,24.1336,VALID,23,VALID,0.714844,
2011-04-25, 02:47:05,VALID,1003.07,VALID,0,INVALID,163.731,VALID,0,VALID,24.1689,VALID,56,VALID,0.132031,
2011-04-25, 02:48:05,VALID,1003.1,VALID,0,INVALID,163.716,VALID,0,VALID,24.1707,VALID,56,VALID,0.240234,
2011-04-25, 02:49:05,VALID,1003.09,VALID,0,INVALID,163.708,VALID,0,VALID,24.1513,VALID,57,VALID,0.550781,
2011-04-25, 02:50:05,VALID,1003.08,VALID,0,INVALID,163.716,VALID,0,VALID,24.1902,VALID,27,VALID,0.353125,
2011-04-25, 02:51:05,VALID,1003.06,VALID,0,INVALID,163.701,VALID,0,VALID,24.2115,VALID,27,VALID,0.198828,
2011-04-25, 02:52:05,VALID,1003.06,VALID,0,INVALID,163.685,VALID,0,VALID,24.1494,VALID,40,VALID,0.382813,
2011-04-25, 02:53:05,VALID,1003.07,VALID,0,INVALID,163.731,VALID,0,VALID,24.2097,VALID,93,VALID,0.273828,
2011-04-25, 02:54:05,VALID,1003.07,VALID,0,INVALID,163.716,VALID,0,VALID,24.2078,VALID,92,VALID,0.117969,
2011-04-25, 02:55:05,VALID,1003.05,VALID,0,INVALID,163.723,VALID,0,VALID,24.2486,VALID,60,VALID,0.387891,
2011-04-25, 02:56:05,VALID,1003.06,VALID,0,INVALID,163.708,VALID,0,VALID,24.2291,VALID,26,VALID,0.964063,
2011-04-25, 02:57:05,VALID,1003.06,VALID,0,INVALID,163.708,VALID,0,VALID,24.2875,VALID,43,VALID,0.310547,
2011-04-25, 02:58:05,VALID,1003.07,VALID,0,INVALID,163.708,VALID,0,VALID,24.2857,VALID,78,VALID,0.299219,
2011-04-25, 02:59:05,VALID,1003.07,VALID,0,INVALID,163.731,VALID,0,VALID,24.2857,VALID,66,VALID,0.300781,
2011-04-25, 03:00:05,VALID,1003.08,VALID,0,INVALID,163.723,VALID,0,VALID,24.2468,VALID,30,VALID,0.750781,
2011-04-25, 03:01:05,VALID,1003.09,VALID,0,INVALID,163.723,VALID,0,VALID,24.2468,VALID,30,VALID,0,
2011-04-25, 03:02:05,VALID,1003.07,VALID,0,INVALID,163.708,VALID,0,VALID,24.2662,VALID,17,VALID,0.694531,
2011-04-25, 03:03:05,VALID,1003.05,VALID,0,INVALID,163.739,VALID,0.100563,VALID,24.2662,VALID,13,VALID,0.725,
2011-04-25, 03:04:05,VALID,1003.06,VALID,0,INVALID,163.716,VALID,0,VALID,24.3052,VALID,35,VALID,0.415625,
2011-04-25, 03:05:05,VALID,1003.05,VALID,0,INVALID,163.739,VALID,0,VALID,24.2839,VALID,74,VALID,0.655469,
2011-04-25, 03:06:05,VALID,1003.07,VALID,0,INVALID,163.716,VALID,0,VALID,24.3052,VALID,24,VALID,0.665625,
2011-04-25, 03:07:05,VALID,1003.03,VALID,0,INVALID,163.716,VALID,0.100563,VALID,24.2857,VALID,26,VALID,0.25,
2011-04-25, 03:08:05,VALID,1003.02,VALID,0,INVALID,163.716,VALID,0,VALID,24.2857,VALID,27,VALID,0.583594,
2011-04-25, 03:09:05,VALID,1003.03,VALID,0,INVALID,163.739,VALID,0,VALID,24.3052,VALID,15,VALID,0.830859,
2011-04-25, 03:10:05,VALID,1002.99,VALID,0,INVALID,163.716,VALID,0,VALID,24.3441,VALID,56,VALID,0.328906,
2011-04-25, 03:11:05,VALID,1003.01,VALID,0,INVALID,163.693,VALID,0,VALID,24.3636,VALID,76,VALID,0.394141,
2011-04-25, 03:12:05,VALID,1002.97,VALID,0,INVALID,163.708,VALID,0.100563,VALID,24.3636,VALID,76,VALID,0.353125,
2011-04-25, 03:13:05,VALID,1002.91,VALID,0,INVALID,163.723,VALID,0.100563,VALID,24.3441,VALID,76,VALID,0.0078125,
2011-04-25, 03:14:05,VALID,1002.9,VALID,0,INVALID,163.723,VALID,0,VALID,24.3441,VALID,62,VALID,0.3375,
2011-04-25, 03:15:05,VALID,1002.89,VALID,0,INVALID,163.731,VALID,0,VALID,24.3246,VALID,52,VALID,0.367969,
2011-04-25, 03:16:05,VALID,1002.89,VALID,0,INVALID,163.716,VALID,0,VALID,24.3052,VALID,30,VALID,0.430859,
2011-04-25, 03:17:05,VALID,1002.89,VALID,0,INVALID,163.731,VALID,0,VALID,24.2857,VALID,22,VALID,0.337109,
2011-04-25, 03:18:05,VALID,1002.88,VALID,0,INVALID,163.708,VALID,0,VALID,24.3052,VALID,30,VALID,0.0816406,
2011-04-25, 03:19:05,VALID,1002.86,VALID,0,INVALID,163.746,VALID,0,VALID,24.3441,VALID,14,VALID,1.17109,
2011-04-25, 03:20:05,VALID,1002.84,VALID,0,INVALID,163.708,VALID,0,VALID,24.3636,VALID,59,VALID,0.24375,
2011-04-25, 03:21:05,VALID,1002.85,VALID,0,INVALID,163.746,VALID,0.100563,VALID,24.3636,VALID,59,VALID,0.0398437,
2011-04-25, 03:22:05,VALID,1002.83,VALID,0,INVALID,163.708,VALID,0,VALID,24.3246,VALID,58,VALID,0.289453,
2011-04-25, 03:23:05,VALID,1002.85,VALID,0,INVALID,163.716,VALID,0,VALID,24.2662,VALID,59,VALID,0.236328,
2011-04-25, 03:24:05,VALID,1002.85,VALID,0,INVALID,163.708,VALID,0,VALID,24.2662,VALID,25,VALID,0.648047,
2011-04-25, 03:25:05,VALID,1002.84,VALID,0,INVALID,163.723,VALID,0,VALID,24.2486,VALID,30,VALID,0.425,
2011-04-25, 03:26:05,VALID,1002.84,VALID,0,INVALID,163.716,VALID,0,VALID,24.2078,VALID,30,VALID,0.367188,
2011-04-25, 03:27:05,VALID,1002.82,VALID,0,INVALID,163.739,VALID,0,VALID,24.1884,VALID,30,VALID,0.573438,
2011-04-25, 03:28:05,VALID,1002.86,VALID,0,INVALID,163.739,VALID,0.100563,VALID,24.1513,VALID,30,VALID,0.599609,
2011-04-25, 03:29:05,VALID,1002.86,VALID,0,INVALID,163.731,VALID,0,VALID,24.0734,VALID,30,VALID,0.403125,
2011-04-25, 03:30:05,VALID,1002.86,VALID,0,INVALID,163.731,VALID,0,VALID,24.0752,VALID,22,VALID,0.413672,
2011-04-25, 03:31:05,VALID,1002.86,VALID,0,INVALID,163.746,VALID,0,VALID,23.9955,VALID,22,VALID,0.197656,
2011-04-25, 03:32:05,VALID,1002.84,VALID,0,INVALID,163.769,VALID,0,VALID,23.9371,VALID,20,VALID,0.517578,
2011-04-25, 03:33:05,VALID,1002.87,VALID,0,INVALID,163.762,VALID,0,VALID,23.9177,VALID,12,VALID,0.541016,
2011-04-25, 03:34:05,VALID,1002.87,VALID,0,INVALID,163.746,VALID,0,VALID,23.8787,VALID,14,VALID,0.353906,
2011-04-25, 03:35:05,VALID,1002.86,VALID,0,INVALID,163.762,VALID,0,VALID,23.8787,VALID,13,VALID,0.614844,
2011-04-25, 03:36:05,VALID,1002.86,VALID,0,INVALID,163.739,VALID,0,VALID,23.9195,VALID,13,VALID,0.384375,
2011-04-25, 03:37:05,VALID,1002.85,VALID,0,INVALID,163.754,VALID,0,VALID,23.9195,VALID,13,VALID,0.474219,
2011-04-25, 03:38:05,VALID,1002.85,VALID,0,INVALID,163.762,VALID,0,VALID,23.9195,VALID,13,VALID,0.446484,
2011-04-25, 03:39:05,VALID,1002.84,VALID,0,INVALID,163.754,VALID,0,VALID,23.8964,VALID,13,VALID,0.294531,
2011-04-25, 03:40:05,VALID,1002.84,VALID,0,INVALID,163.731,VALID,0,VALID,23.9371,VALID,51,VALID,0.545703,